Location: ???????????
(54.6970°N, 39.1477°E)
Time: 05:13:22
(UTC+00:00)

H-2A R/B - Pass Details

Date: 19 May 2025
Orbit: 555 x 622 km, 98.4° (Epoch: 19 June)

Event Time Altitude Azimuth Distance (km) Brightness Sun altitude
Rises 23:22:54 0° 17° (NNE) 2,839 7.3 -10.8°
Reaches altitude 10° 23:25:07 10° 19° (NNE) 1,921 6.1 -10.7°
Maximum altitude 23:29:16 73° 105° (ESE) 610 2.1 -10.4°
Enters shadow 23:32:59 12° 189° (S) 1,737 3.8 -10.1°
